Location: Cazavet
(43.0017°N, 1.0431°E)
Time: 21:54:00
(UTC+00:00)

CORIOLIS - Pass Details

Date: 18 January 2026
Orbit: 816 x 835 km, 98.7° (Epoch: 10 February)

Event Time Altitude Azimuth Distance (km) Brightness Sun altitude
Rises 06:23:39 0° 13° (NNE) 3,395 7.3 -10.8°
Reaches altitude 10° 06:26:01 10° 12° (NNE) 2,456 6.6 -10.4°
Maximum altitude 06:31:29 84° 285° (WNW) 844 4.2 -9.4°
Drops below altitude 10° 06:36:53 10° 198° (SSW) 2,431 6.6 -8.5°
Sets 06:39:13 0° 198° (SSW) 3,358 7.4 -8.1°
